Find Starlink 4692

NORAD ID: 53603 Int'l Des: 2022-104 Owner: SPXS Country: US Constellation: starlink operational
LEOCIRCULAR

リアルタイム位置

3D地球を読み込み中...

Starlink 4692について

説明を読み込み中...

次回通過

Passes for default location (London). Set your location on the main map for personalized predictions.

高度履歴

Loading altitude history...

軌道要素

1 53603U 22104R 26129.96837573 -.00000046 00000-0 15211-4 0 9999
2 53603 53.2183 324.2039 0001657 93.4496 266.6685 15.08839022204933
Epoch: May 9, 2026 • Age: 16 hours

現在のステータス

高度 539.8 km
速度 7.59 km/s
衛星直下点 8.62°N, 128.53°W
打ち上げ日 Aug 28, 2022
運用期間 3.6 years
タイプ internet

技術仕様

分類 Payload
質量 300.00 kg
乾燥質量 290.00 kg
総質量 300.00 kg
長さ 0.20 m
直径 2.80 m
スパン 9.00 m
形状 Box + pan
製造者 SPXS
バスタイプ Starlink
フェーズステータス In Orbit
所有者/国 SPXS/US

Most Searched